Regional Weather Roundup
Issued by NWS Upton, NY

Current Version | Previous Version | Graphics & Text | Print | Product List | Glossary Off
Versions: 1 2 3 4 5 6 7 8 9 10 11 12 13 14 15 16 17 18 19 20 21 22 23 24 25 26 27 28 29 30 31 32 33 34 35 36 37 38 39 40 41 42 43 44 45 46 47 48 49 50

000
ASUS41 KOKX 150705
RWROKX
REGIONAL WEATHER ROUNDUP
NATIONAL WEATHER SERVICE NEW YORK NY
300 AM EDT MON SEP 15 2014

NOTE: "FAIR" INDICATES FEW OR NO CLOUDS BELOW 12,000 FEET WITH NO
SIGNIFICANT WEATHER AND/OR OBSTRUCTIONS TO VISIBILITY.

NYZ071-072-176-178-NJZ106-104-150800-
NEW YORK CITY METRO AREA


CITY           SKY/WX    TMP DP  RH WIND       PRES   REMARKS
CENTRAL PARK   CLEAR     57  48  72 CALM      30.22S
LAGUARDIA APRT CLEAR     59  46  62 N7        30.19S
KENNEDY INTL   PTCLDY    57  48  72 NE7       30.20S
NEWARK/LIBERTY CLEAR     55  46  71 N8        30.20S
BRNX BOT. GARD   N/A     52  45  76 E2        30.20F
TETERBORO      CLEAR     52  45  77 N3        30.19S
$$

NYZ177-179-078>081-150800-
LONG ISLAND NEW YORK

CITY           SKY/WX    TMP DP  RH WIND       PRES   REMARKS
FARMINGDALE    CLEAR     55  49  80 N5        30.19S
ISLIP          CLOUDY    57  51  80 N7        30.17F
SHIRLEY        CLEAR     52  49  89 N3        30.19F
WESTHAMPTON    CLEAR     42  38  85 CALM      30.20S
MONTAUK POINT    N/A     59  53  80 NE5       30.20S
$$

NYZ052-065-067-150800-
HUDSON VALLEY

CITY           SKY/WX    TMP DP  RH WIND       PRES   REMARKS
WHITE PLAINS   CLEAR     51  43  74 N7        30.20R
NEWBURGH       CLEAR     45  45 100 CALM      30.24
MONTGOMERY     PTCLDY    42  39  89 CALM      30.22S
POUGHKEEPSIE   CLEAR     43  41  93 CALM      30.22F
ALBANY         CLOUDY    47  44  90 CALM      30.24S
$$

NJZ001-105-106-008-010-013-015-019>022-104-150800-
NEW JERSEY

CITY           SKY/WX    TMP DP  RH WIND       PRES   REMARKS
NEWARK/LIBERTY CLEAR     55  46  71 N8        30.20S
TETERBORO      CLEAR     52  45  77 N3        30.19S
CALDWELL       CLEAR     49  46  90 CALM      30.21S
MORRISTOWN     CLEAR     45  41  87 CALM      30.21S
SOMERVILLE     CLEAR     45  43  93 NW3       30.19S
LINDEN         FAIR      57  52  82 NW3       30.22S
SUSSEX         PTCLDY    44  41  89 CALM      30.23S
ANDOVER          N/A     46  45  96 CALM      30.22S
TRENTON        CLEAR     49  46  90 CALM      30.20S
MILLVILLE      CLEAR     47  46  97 CALM      30.21S
ATLANTIC CITY  CLEAR     52  48  86 CALM      30.20F
WRIGHTSTOWN    NOT AVBL
TOMS RIVER     CLEAR     46  43  87 CALM      30.20S
BELMAR         CLEAR     52  45  76 W5        30.19S
$$

PAZ047>061-062-071-150800-
EASTERN PENNSYLVANIA

CITY           SKY/WX    TMP DP  RH WIND       PRES   REMARKS
PHILADELPHIA   CLEAR     57  47  69 NW6       30.21S
ALLENTOWN      CLEAR     47  44  90 CALM      30.22S
SCRANTON       CLOUDY    47  41  80 E5        30.23F
$$

CTZ002-004>006-009-010-012-RIZ004-006-007-MAZ004-011-015-150800-
SOUTHERN NEW ENGLAND
 IN CT

CITY           SKY/WX    TMP DP  RH WIND       PRES   REMARKS
BRADLEY INTL   CLEAR     46  43  89 N5        30.22S
HARTFORD       CLEAR     50  44  80 VRB7      30.22S
DANBURY        CLEAR     44  42  93 CALM      30.23S
WTRBRY/OXFORD  CLEAR     48  39  71 NE7       30.22S
BRIDGEPORT     CLEAR     53  45  74 N10       30.20S
MERIDEN        CLEAR     50  44  80 N5        30.22S
NEW HAVEN      CLEAR     53  46  77 N15       30.20S
CHESTER        FAIR      48  46  93 N6        30.21S
GROTON         CLEAR     49  47  93 N8        30.19S
WILLIMANTIC    CLEAR     46  43  89 N3        30.22S

 IN RI

CITY           SKY/WX    TMP DP  RH WIND       PRES   REMARKS
PROVIDENCE     CLEAR     50  46  86 N8        30.21S
BLOCK ISLAND   CLEAR     55  52  88 N6        30.19S
WESTERLY       CLEAR     48  47  96 N5        30.20S

 IN MA

CITY           SKY/WX    TMP DP  RH WIND       PRES   REMARKS
BOSTON         PTCLDY    50  43  77 NW7       30.21S
WORCESTER      PTCLDY    48  40  73 N7        30.21F
WESTFIELD      CLEAR     45  42  89 N6        30.23S
PROVINCETOWN   CLEAR     43  37  81 CALM      30.21S
NANTUCKET      CLOUDY    53  47  79 CALM      30.19S
$$

ANZ330-335-338-340-345-350-353-355-150800-
COASTAL MARINE OBSERVATIONS


STATION/POSITION TIME  SKY/WX   TEMP    WIND        PRES    VSBY  WAVE
                                AIR SEA DIR/SP/G                  HT/PER
                 (UTC)          (F)     (DEG/KT/KT) (MB)    (MI)  (FT/S)
NY HARB ENTRANCE NOT AVBL
4S FIRE IS       NOT AVBL
23SW MTP         0700                                 N/A           1/ 6
HUDSON CANYON    0700            64 74  320/  6/ 10 1022.0          2/ 6
EXECUTION ROCKS  0700            60 71   30/ 12/ 16   N/A
WESTERN LI SOUND 0700            57      20/ 12/ 14   N/A           1
CENTRAL LI SOUND 0600            58 71   20/ 12/ 14   N/A           1/ 3
EASTERN LI SOUND 0600            56 68   10/ 12/ 14   N/A
ROBBINS REEF     0700            57     350/ 12/ 13 1021.2
$$


>>>>>>>>>>>>>>>>>>>>>>>>>>>> KEY <<<<<<<<<<<<<<<<<<<<<<<<<<<
>                                                          <
>     SKY/WX - SKY CONDITION/PRESENT WEATHER               <
>     TMP    - TEMPERATURE IN FAHRENHEIT                   <
>     DP     - DEWPOINT IN FAHRENHEIT                      <
>     RH     - RELATIVE HUMIDITY IN PERCENT                <
>     WIND   - DIRECTION AND SPEED IN MPH                  <
>     PRES   - MEAN SEA LEVEL PRESSURE IN INCHES OF HG     <
>     WCI    - WIND CHILL INDEX                            <
>     VSB    - VISIBILITY IN MILES                         <
>     HX     - HEAT INDEX                                  <
>     TC     - TEMPERATURE IN CELSIUS                      <
>     VRB    - VARIABLE WIND DIRECTION                     <
>                                                          <
>>>>>>>>>>>>>>>>>>>>>>>>>>>> KEY <<<<<<<<<<<<<<<<<<<<<<<<<<<




USA.gov is the U.S. government's official web portal to all federal, state and local government web resources and services.